This demonstration page uses our WeatherBlox Daily Observations layout. Learn more.

Left ArrowRight Arrow

44.8408, -93.29828

Hourly Observations for April 17, 2017

Temp ( °F °C ) Dew Point ( °F °C ) Humidity (%) Winds ( mph kmh ) Pressure ( in mb ) Visibility ( mi km ) Precip ( " mm )
12:53 am 00:53 Cloudy 54 12.2 32 0 43 43 NNW 6 9 30.11 1020 10 16 0.00 0.00
1:53 am 01:53 Mostly Cloudy 54 12.2 32 0 43 43 NNW 6 9 30.12 1020 10 16 0.00 0.00
2:53 am 02:53 Cloudy 51 10.6 34 1.1 52 52 WNW 9 15 30.13 1020 10 16 0.00 0.00
3:53 am 03:53 Mostly Cloudy 49 9.4 35 1.7 59 59 WNW 9 15 30.14 1021 10 16 0.00 0.00
4:53 am 04:53 Mostly Cloudy 48 8.9 35 1.7 61 61 WNW 8 13 30.16 1021 10 16 0.00 0.00
5:53 am 05:53 Partly Cloudy 46 7.8 33 0.6 61 61 WNW 8 13 30.18 1022 10 16 0.00 0.00
6:53 am 06:53 Partly Cloudy 45 7.2 28 -2.2 52 52 WNW 9 15 30.20 1023 10 16 0.00 0.00
7:53 am 07:53 Partly Cloudy 46 7.8 22 -5.6 38 38 NNW 12 19 30.22 1023 10 16 0.00 0.00
8:53 am 08:53 Mostly Sunny 48 8.9 24 -4.4 39 39 NNW 12 19 30.23 1024 10 16 0.00 0.00
9:53 am 09:53 Mostly Sunny 49 9.4 25 -3.9 39 39 N 10 17 30.23 1024 10 16 0.00 0.00
10:53 am 10:53 Sunny 50 10 27 -2.8 41 41 N 10 17 30.24 1024 10 16 0.00 0.00
11:53 am 11:53 Sunny 52 11.1 27 -2.8 38 38 N 12 19 30.24 1024 10 16 0.00 0.00
12:53 pm 12:53 Mostly Sunny 54 12.2 28 -2.2 37 37 VRB 3 6 30.23 1024 10 16 0.00 0.00
1:53 pm 13:53 Mostly Sunny 55 12.8 29 -1.7 37 37 VRB 5 7 30.21 1023 10 16 0.00 0.00
2:53 pm 14:53 Mostly Sunny 56 13.3 30 -1.1 37 37 VRB 3 6 30.19 1022 10 16 0.00 0.00
3:53 pm 15:53 Mostly Sunny 59 15 30 -1.1 33 33 NW 7 11 30.17 1022 10 16 0.00 0.00
4:53 pm 16:53 Mostly Sunny 58 14.4 26 -3.3 29 29 WNW 5 7 30.15 1021 10 16 0.00 0.00
5:53 pm 17:53 Partly Cloudy 57 13.9 24 -4.4 28 28 VRB 5 7 30.15 1021 10 16 0.00 0.00
6:53 pm 18:53 Mostly Cloudy 58 14.4 23 -5 26 26 Calm 30.13 1020 10 16 0.00 0.00
7:53 pm 19:53 Mostly Cloudy 55 12.8 25 -3.9 31 31 VRB 5 7 30.13 1020 10 16 0.00 0.00
8:53 pm 20:53 Cloudy 55 12.8 24 -4.4 30 30 Calm 30.14 1021 10 16 0.00 0.00
9:53 pm 21:53 Cloudy 55 12.8 25 -3.9 31 31 SE 3 6 30.14 1021 10 16 0.00 0.00
10:53 pm 22:53 Cloudy 52 11.1 29 -1.7 41 41 E 7 11 30.12 1020 10 16 0.00 0.00
11:53 pm 23:53 Cloudy 52 11.1 30 -1.1 43 43 E 8 13 30.10 1019 10 16 0.00 0.00

Powered by AerisWeather